Regional Weather Roundup
Issued by NWS State College, PA

Home | Current Version | Previous Version | Text Only | Print | Product List | Glossary On
Versions: 1 2 3 4 5 6 7 8 9 10 11 12 13 14 15 16 17 18 19 20 21 22 23 24 25 26 27 28 29 30 31 32 33 34 35 36 37 38 39 40 41 42 43 44 45 46 47 48 49 50
000
ASUS41 KCTP 240810
RWRCTP

REGIONAL WEATHER ROUNDUP
NATIONAL WEATHER SERVICE STATE COLLEGE PA
400 AM EDT MON APR 24 2017

Note: "fair" indicates few or no clouds below 12,000 feet with no
significant weather and/or obstructions to visibility.

* = STATION THAT DOES NOT REPORT PRECIPITATION /E.G. RAIN...SNOW...ETC/
    THUNDER OR FOG.

PAZ002>004-007>009-013>016-020>023-029>032-240900-
WESTERN PENNSYLVANIA

CITY           SKY/WX    TMP DP  RH WIND       PRES   REMARKS
ERIE           CLEAR     41  30  65 CALM      30.06S
MEADVILLE      CLEAR     50  20  30 E8        30.04F
FRANKLIN*      CLEAR     43  30  61 NE3       30.06S
NEW CASTLE     FAIR      43  36  76 NE5       30.03F
BEAVER COUNTY  NOT AVBL
BUTLER*        PTCLDY    43  36  75 NE3       30.03F
PITTSBURGH INT PTCLDY    50  33  52 NE7       30.01F
PITTSBURGH     CLOUDY    49  31  49 NE5       30.01F
INDIANA*       CLEAR     43  36  75 CALM      30.07S
LATROBE        CLOUDY    50  36  57 N3        30.03S
WASHINGTON CO* PTCLDY    46  36  66 N5        30.02S
$$

PAZ004>006-010>012-017>019-024>028-033>037-041-042-045-046-049>053-240900-
CENTRAL PENNSYLVANIA

CITY           SKY/WX    TMP DP  RH WIND       PRES   REMARKS
BRADFORD       CLEAR     38  31  76 CALM      30.08R
DUBOIS         CLEAR     46  29  51 E7        30.05F
CLEARFIELD     CLEAR     38  31  76 N6        30.08R
JOHNSTOWN      PTCLDY    45  37  73 E3        30.03F
ALTOONA        PTCLDY    42  38  85 CALM      30.07S
STATE COLLEGE  CLEAR     44  32  62 CALM      30.07S
WILLIAMSPORT   CLEAR     42  37  82 CALM      30.09R
SELINSGROVE    CLEAR     37  37 100 CALM      30.09S
FT INDIANTOWN  CLOUDY    41  41 100 CALM      30.07F
CAPITAL CITY   CLOUDY    46  41  82 CALM      30.08S
HARRISBURG     CLOUDY    48  44  86 E3        30.08S
YORK           CLOUDY    49  48  97 CALM      30.08R
$$

PAZ038>040-043-044-047-048-054-055-060>062-067>071-240900-
EASTERN PENNSYLVANIA

CITY           SKY/WX    TMP DP  RH WIND       PRES   REMARKS
SCRANTON       CLEAR     47  36  65 E5        30.09R
MOUNT POCONO   CLEAR     36  35  96 NW3       30.09R
ALLENTOWN      PTCLDY    42  39  89 N3        30.09S
QUAKERTOWN*    CLOUDY    41  41 100 MISG      30.11R
READING        CLOUDY    47  45  93 CALM      30.08S
LANCASTER      CLOUDY    48  47  96 CALM      30.08F
COATESVILLE    CLOUDY    48  46  93 CALM      30.10S
POTTSTOWN      CLOUDY    45  44  97 NE3       30.11S
BLUE BELL      CLOUDY    45  45 100 CALM      30.11S
DOYLESTOWN     MOCLDY    43  42  97 CALM      30.09S
WILLOW GROVE   NOT AVBL
NORTH PHILA    CLOUDY    50  46  86 E3        30.11S
PHILADELPHIA   CLOUDY    51  46  83 SE6       30.11S
$$




USA.gov is the U.S. government's official web portal to all federal, state and local government web resources and services.